[[[{"header":{"parameterUnit":"kt","parameterCategory":2,"dx":1,"dy":1,"la1":30.253999710083008,"la2":30.299108505249023,"lo1":-89.0895004272461,"lo2":-89.04439544677734,"nx":28,"ny":28,"refTime":"2022-09-24T21:00:00:Z","depth":0,"parameterNumber":1,"parameterNumberName":"U-component_of_WINDS"},"data":[3.2906,3.3102,3.3104,3.3332,3.3371,3.3529,3.3587,3.3663,3.3724,3.3917,3.4029,3.4054,3.4121,3.426,3.4385,3.4395,3.4451,3.4521,3.4521,3.4198,3.4155,3.4113,3.4065,3.4531,3.4532,3.4856,3.4859,3.4862,3.2679,3.2719,3.2837,3.2954,3.3058,3.2991,3.308,3.3173,3.3318,3.3394,3.3502,3.3674,3.3811,3.3853,3.3987,3.4086,3.4066,3.4123,3.4119,3.4132,3.3786,3.3735,3.4138,3.4138,3.4138,3.4138,3.4138,3.4138,3.2267,3.2384,3.2452,3.2581,3.264,3.2719,3.2833,3.2856,3.2975,3.3109,3.3088,3.3253,3.3332,3.3493,3.3548,3.3681,3.3618,3.3683,3.3701,3.3719,3.3741,3.3284,3.3702,3.3701,3.37,3.3699,3.3699,0,3.1966,3.1959,3.2069,3.2184,3.2277,3.2366,3.2447,3.2517,3.2502,3.2602,3.2746,3.2831,3.3,3.314,3.3264,3.3308,3.3255,3.3247,3.3294,3.331,3.331,3.3319,3.2761,3.3236,3.3232,3.3229,3.3227,3.3225,3.1556,3.1689,3.1759,3.1838,3.1881,3.2009,3.2086,3.2061,3.2145,3.2245,3.2352,3.2488,3.2597,3.2832,3.2863,3.2991,3.2967,3.3149,3.2986,3.2996,3.2979,3.2973,3.299,3.3183,3.3188,3.3193,3.3196,0,3.1327,3.1322,3.1529,3.1584,3.1602,3.1746,3.1795,3.1912,3.1921,3.2085,3.2121,3.2138,3.2282,3.2282,3.2446,3.2443,3.2694,3.2663,3.2668,3.2664,3.2832,3.2819,3.3363,3.3437,3.2947,3.2951,3.2955,0,3.0978,3.1154,3.1138,3.1257,3.1454,3.1421,3.1618,3.1644,3.1706,3.1834,3.1766,3.1889,3.1867,3.1993,3.1987,3.219,3.2218,3.2231,3.2228,3.224,3.2239,3.229,3.227,3.2208,3.2205,3.2203,3.2201,0,3.0623,3.0817,3.101,3.1054,3.1129,3.1222,3.1259,3.1325,3.1401,3.1499,3.155,3.1667,3.1733,3.1828,3.182,3.171,3.2065,3.1912,3.2078,3.2079,3.216,3.2156,3.2634,3.2197,3.2196,3.2195,3.2194,0,3.0341,3.0433,3.0712,3.0774,3.0826,3.0953,3.1064,3.1172,3.1247,3.125,3.1327,3.1283,3.1452,3.1303,3.154,3.1401,3.1472,3.1496,3.1508,3.1527,3.1361,3.1638,3.2088,3.2138,3.1542,3.1537,3.1532,0,2.994,3.0216,3.0187,3.0453,3.0581,3.0495,3.0636,3.0702,3.0717,3.0831,3.0848,3.0979,3.0865,3.0906,3.1023,3.1048,3.123,3.1023,3.1201,3.1208,3.1188,3.1601,3.167,3.1988,3.1462,3.1469,3.1474,0,2.9628,2.971,2.9759,2.9808,2.9884,2.999,3.0151,3.027,3.0348,3.0427,3.0566,3.0746,3.0671,3.0737,3.0712,3.0835,3.1106,3.0737,3.0739,3.081,3.1423,3.149,3.1543,3.1064,3.1073,3.1079,3.1419,0,2.9214,2.9348,2.9477,2.9582,2.9661,2.9824,2.9814,2.9899,2.9866,2.9875,3.0076,3.0128,3.0253,3.0308,3.0277,3.0554,3.0508,3.0424,3.0281,3.0549,3.0662,3.0707,3.0115,3.0111,3.0107,3.0104,0,0,2.8835,2.9025,2.8984,2.9135,2.92,2.9105,2.9281,2.9334,2.9442,2.9492,2.941,2.9673,2.9718,2.9965,3.0047,3.0095,3.0147,3.0051,3.042,3.0456,3.0488,3.0609,3.0655,3.0098,3.0096,3.0095,3.0094,0,2.8681,2.8719,2.8889,2.894,2.9013,2.9012,2.9053,2.911,2.9124,2.9315,2.9239,2.9358,2.9565,2.9627,2.9685,3.002,2.9959,3.0058,3.0243,3.0384,3.0424,3.0459,3.0586,3.0631,3.0085,3.0086,3.0086,0,2.8376,2.8414,2.8492,2.8627,2.8674,2.8806,2.8651,2.8795,2.8894,2.8785,2.8977,2.9006,2.9084,2.9314,2.9417,2.9347,2.9789,2.9644,2.9667,2.968,2.9816,2.9864,2.9907,2.9344,2.9341,2.9339,0,0,2.8245,2.8365,2.8397,2.8593,2.8628,2.8627,2.8695,2.8666,2.8734,2.8762,2.8796,2.8869,2.899,2.907,2.9182,2.9434,2.9452,2.9553,2.9588,2.9617,2.9645,2.9789,2.9836,2.9329,2.9329,2.9329,0,0,2.8183,2.8226,2.8177,2.8401,2.8467,2.8514,2.8636,2.8579,2.8677,2.8657,2.862,2.8637,2.8851,2.8881,2.8753,2.9133,2.899,2.902,2.9105,2.9149,2.9183,2.9173,2.8605,0,0,0,0,0,2.8018,2.822,2.8175,2.821,2.838,2.8538,2.856,2.853,2.8431,2.8529,2.8549,2.8474,2.8806,2.8691,2.873,2.8874,2.9205,2.9227,2.9248,2.9416,2.9462,2.9501,0,0,0,0,0,0,2.8032,2.8075,2.817,2.8224,2.8262,2.853,2.8355,2.8353,2.8419,2.8402,2.8473,2.8476,2.8457,2.8669,2.8705,2.8842,2.8593,2.9213,2.9232,2.9249,2.9432,2.9469,2.9502,0,0,0,0,0,2.8042,2.8077,2.8356,2.8221,2.8254,2.8263,2.8347,2.8344,2.8395,2.8424,2.8425,2.8367,2.8462,2.8489,2.869,2.8827,2.8569,2.8582,2.9226,2.924,2.9254,2.945,0,0,0,0,0,0,2.805,2.8077,2.8362,2.8371,2.8141,2.8248,2.8263,2.8337,2.8412,2.8415,2.8315,2.8301,2.8467,2.8488,2.851,2.8824,2.8548,2.8562,2.857,2.9237,2.9248,2.9259,0,0,0,0,0,0,2.8058,2.8085,2.8366,2.8266,2.8264,2.8234,2.8248,2.8413,2.8414,2.8299,2.8289,2.8308,2.8436,2.8488,2.8504,2.8764,2.8533,2.8546,2.8555,2.8561,2.9246,2.9255,0,0,0,0,0,0,2.8069,2.8093,2.8264,2.8262,2.8259,2.836,2.838,2.8557,2.8324,2.8297,2.8303,2.8293,2.8439,2.8455,2.8502,2.8755,2.8762,2.8534,2.8542,2.8549,2.8553,0,0,0,0,0,0,0,2.8078,2.7927,2.8307,2.8258,2.8255,2.8456,2.8458,2.8461,2.8322,2.8313,2.8305,2.8297,2.846,2.8474,2.8488,2.8747,0,0,2.8532,2.8539,0,0,0,0,0,0,0,0,2.7916,2.7924,2.8307,2.8309,2.8311,2.8456,2.8458,2.846,2.832,2.8313,2.8307,2.83,2.8464,2.8475,2.8487,0,0,0,0,0,0,0,0,0,0,0,0,0,0,0,2.8307,2.8309,0,2.8456,2.8458,2.846,2.8319,2.8314,2.8308,2.8303,2.8467,2.8476,2.8486,0,0,0,0,0,0,0,0,0,0,0,0,0,0,0,0,0,0,0,0,0,0,0,0,0,0,0,0,0,0,0,0,0,0,0,0,0,0,0,0,0,0,0,0,0,0,0,0,0,0,0,0,0,0,0,0,0,0,0,0,0,0,0,0,0,0,0,0,0]}],[{"header":{"parameterUnit":"kt","parameterCategory":2,"dx":1,"dy":1,"la1":30.253999710083008,"la2":30.299108505249023,"lo1":-89.0895004272461,"lo2":-89.04439544677734,"nx":28,"ny":28,"refTime":"2022-09-24T21:00:00:Z","depth":0,"parameterNumber":2,"parameterNumberName":"V-component_of_WINDS"},"data":[-5.8274,-5.8304,-5.8324,-5.8365,-5.8389,-5.842,-5.8437,-5.846,-5.8483,-5.8519,-5.8543,-5.8563,-5.859,-5.8621,-5.8645,-5.8653,-5.8662,-5.8658,-5.8667,-5.8671,-5.8672,-5.8674,-5.8669,-5.8659,-5.8659,-5.8661,-5.8661,-5.8661,-5.8271,-5.8296,-5.8325,-5.8365,-5.8389,-5.8404,-5.8437,-5.8455,-5.8481,-5.8509,-5.8534,-5.8567,-5.8594,-5.8624,-5.8652,-5.8663,-5.8671,-5.8669,-5.8668,-5.8672,-5.8677,-5.8672,-5.8662,-5.8662,-5.8662,-5.8662,-5.8662,-5.8662,-5.827,-5.8288,-5.8325,-5.8357,-5.8382,-5.8409,-5.8428,-5.8454,-5.848,-5.8516,-5.8532,-5.8562,-5.8592,-5.8635,-5.8654,-5.8675,-5.868,-5.8683,-5.8684,-5.8684,-5.8682,-5.8675,-5.868,-5.868,-5.8681,-5.8681,-5.8681,0,-5.8276,-5.8292,-5.8322,-5.8357,-5.8381,-5.841,-5.8439,-5.8451,-5.8489,-5.8508,-5.8538,-5.8558,-5.8596,-5.8625,-5.8656,-5.8675,-5.8691,-5.8695,-5.8697,-5.869,-5.8678,-5.8684,-5.8689,-5.8695,-5.8695,-5.8695,-5.8695,-5.8695,-5.8277,-5.8296,-5.8345,-5.8363,-5.8385,-5.8413,-5.8433,-5.8466,-5.8486,-5.8525,-5.8537,-5.8567,-5.8593,-5.8635,-5.8663,-5.869,-5.8699,-5.8698,-5.8703,-5.8694,-5.8698,-5.8696,-5.8697,-5.8697,-5.8697,-5.8697,-5.8696,0,-5.8274,-5.8309,-5.8345,-5.8392,-5.8404,-5.8421,-5.846,-5.8478,-5.8502,-5.8529,-5.8537,-5.8574,-5.8602,-5.8631,-5.8668,-5.8681,-5.8704,-5.8711,-5.8693,-5.8696,-5.8698,-5.8697,-5.8703,-5.8705,-5.8716,-5.8715,-5.8715,0,-5.8288,-5.8312,-5.8362,-5.8381,-5.8407,-5.8441,-5.8465,-5.8489,-5.8518,-5.854,-5.8565,-5.8585,-5.862,-5.8642,-5.8663,-5.8686,-5.8694,-5.8705,-5.8711,-5.8703,-5.8702,-5.8713,-5.8713,-5.8723,-5.8723,-5.8723,-5.8723,0,-5.8282,-5.8337,-5.8369,-5.8386,-5.844,-5.8452,-5.8474,-5.8509,-5.8528,-5.8558,-5.857,-5.8601,-5.8618,-5.864,-5.8667,-5.8668,-5.8697,-5.8705,-5.8709,-5.8708,-5.8714,-5.8713,-5.871,-5.8723,-5.8723,-5.8723,-5.8723,0,-5.8299,-5.8333,-5.8374,-5.8418,-5.8431,-5.8451,-5.8487,-5.8511,-5.8545,-5.8561,-5.8584,-5.8604,-5.8629,-5.8635,-5.8668,-5.8663,-5.8677,-5.8691,-5.8692,-5.8696,-5.8701,-5.8695,-5.869,-5.8691,-5.8698,-5.8698,-5.8698,0,-5.8281,-5.8333,-5.8365,-5.8402,-5.8431,-5.846,-5.8482,-5.8512,-5.8536,-5.8561,-5.8585,-5.8613,-5.8624,-5.8636,-5.8649,-5.8675,-5.8682,-5.8675,-5.8706,-5.8706,-5.8696,-5.8692,-5.8684,-5.8688,-5.8696,-5.8696,-5.8696,0,-5.8272,-5.8341,-5.8346,-5.8368,-5.8418,-5.8441,-5.8467,-5.8504,-5.8519,-5.8551,-5.8572,-5.8612,-5.8622,-5.8643,-5.8664,-5.8675,-5.8678,-5.8684,-5.8685,-5.8681,-5.8698,-5.869,-5.869,-5.8688,-5.8689,-5.8689,-5.8694,0,-5.8288,-5.8321,-5.8336,-5.8386,-5.841,-5.8436,-5.8473,-5.8492,-5.8511,-5.8536,-5.8568,-5.8601,-5.8637,-5.8646,-5.8664,-5.8682,-5.8684,-5.8694,-5.8702,-5.8699,-5.8701,-5.8702,-5.8695,-5.8695,-5.8696,-5.8696,0,0,-5.8262,-5.831,-5.8346,-5.8375,-5.8398,-5.8429,-5.8454,-5.8478,-5.8528,-5.8541,-5.8546,-5.8608,-5.8635,-5.8669,-5.8671,-5.8686,-5.8691,-5.8692,-5.87,-5.87,-5.8701,-5.8703,-5.8704,-5.8696,-5.8697,-5.8697,-5.8697,0,-5.8277,-5.831,-5.8336,-5.8364,-5.8408,-5.8435,-5.8441,-5.8489,-5.8507,-5.854,-5.8564,-5.8587,-5.8636,-5.8661,-5.868,-5.8689,-5.8704,-5.8697,-5.869,-5.8703,-5.8702,-5.8702,-5.8704,-5.8705,-5.8698,-5.8698,-5.8698,0,-5.8275,-5.8313,-5.833,-5.8386,-5.8415,-5.8444,-5.8462,-5.8492,-5.8513,-5.8544,-5.8577,-5.86,-5.8637,-5.8666,-5.868,-5.8685,-5.8714,-5.8711,-5.871,-5.8712,-5.8726,-5.8726,-5.8726,-5.8729,-5.8729,-5.8729,0,0,-5.8282,-5.8314,-5.8365,-5.8393,-5.8409,-5.845,-5.847,-5.8492,-5.8527,-5.8541,-5.8572,-5.8603,-5.8631,-5.8649,-5.8678,-5.8705,-5.8715,-5.8714,-5.8712,-5.8711,-5.8713,-5.8726,-5.8726,-5.8728,-5.8728,-5.8728,0,0,-5.8285,-5.8348,-5.8362,-5.8399,-5.8433,-5.8484,-5.8498,-5.8516,-5.8547,-5.8548,-5.8584,-5.8594,-5.8622,-5.8644,-5.8638,-5.8681,-5.8689,-5.8691,-5.8667,-5.8665,-5.8664,-5.8658,-5.866,0,0,0,0,0,-5.8321,-5.834,-5.8353,-5.8365,-5.8436,-5.8477,-5.8486,-5.8519,-5.8523,-5.8533,-5.8562,-5.8578,-5.8648,-5.8644,-5.8654,-5.866,-5.8727,-5.8727,-5.8728,-5.8703,-5.8701,-5.87,0,0,0,0,0,0,-5.8326,-5.8341,-5.8352,-5.8404,-5.8421,-5.8477,-5.8492,-5.8501,-5.8523,-5.8526,-5.8572,-5.858,-5.8606,-5.8641,-5.8649,-5.8654,-5.8658,-5.8727,-5.8727,-5.8728,-5.8702,-5.8701,-5.87,0,0,0,0,0,-5.8331,-5.8343,-5.8449,-5.8404,-5.8418,-5.8466,-5.8492,-5.8499,-5.8517,-5.8562,-5.857,-5.8539,-5.8605,-5.8614,-5.8646,-5.865,-5.8652,-5.8655,-5.8727,-5.8728,-5.8728,-5.8702,0,0,0,0,0,0,-5.8334,-5.8349,-5.8452,-5.8458,-5.8401,-5.8463,-5.8474,-5.8498,-5.8552,-5.856,-5.853,-5.8532,-5.8605,-5.8612,-5.8619,-5.8646,-5.8648,-5.8651,-5.8653,-5.8727,-5.8728,-5.8728,0,0,0,0,0,0,-5.8343,-5.8353,-5.8455,-5.8449,-5.8454,-5.846,-5.847,-5.8502,-5.8552,-5.8517,-5.852,-5.8531,-5.8594,-5.8611,-5.8616,-5.8664,-5.8644,-5.8647,-5.8649,-5.865,-5.8728,-5.8728,0,0,0,0,0,0,-5.8348,-5.8357,-5.8448,-5.8451,-5.8456,-5.8518,-5.8488,-5.8558,-5.8549,-5.8514,-5.8549,-5.8549,-5.8592,-5.8598,-5.8614,-5.8659,-5.8662,-5.8644,-5.8646,-5.8648,-5.8649,0,0,0,0,0,0,0,-5.8352,-5.8284,-5.8421,-5.8453,-5.8457,-5.8507,-5.8508,-5.851,-5.8549,-5.8549,-5.8549,-5.8549,-5.8628,-5.8631,-5.8634,-5.8655,0,0,-5.8644,-5.8645,0,0,0,0,0,0,0,0,-5.8281,-5.8283,-5.8421,-5.8422,-5.8423,-5.8507,-5.8508,-5.851,-5.8549,-5.8549,-5.8549,-5.8549,-5.8629,-5.8631,-5.8634,0,0,0,0,0,0,0,0,0,0,0,0,0,0,0,-5.8421,-5.8422,0,-5.8507,-5.8508,-5.8509,-5.8549,-5.8549,-5.8549,-5.8549,-5.8629,-5.8631,-5.8634,0,0,0,0,0,0,0,0,0,0,0,0,0,0,0,0,0,0,0,0,0,0,0,0,0,0,0,0,0,0,0,0,0,0,0,0,0,0,0,0,0,0,0,0,0,0,0,0,0,0,0,0,0,0,0,0,0,0,0,0,0,0,0,0,0,0,0,0,0]}]]]